| time (UTC) | temp F | wind direction | speed MPH | gust MPH | rain 1hr in | rain 24hr in | rain mn in | humidity % | barometer mb |
| 20260506042959 | 62 | 134 | 4.0 | 11.0 | 0.00 | 0.00 | 0.00 | 50 | 1009.3 |
| 20260506041459 | 63 | 197 | 4.0 | 9.0 | 0.00 | 0.00 | 0.00 | 50 | 1009.4 |
| 20260506040004 | 63 | 136 | 4.0 | 11.0 | 0.00 | 0.00 | 0.00 | 49 | 1009.5 |
| 20260506034459 | 63 | 154 | 3.0 | 11.0 | 0.00 | 0.00 | 0.00 | 50 | 1009.5 |
| 20260506032959 | 64 | 188 | 3.0 | 8.0 | 0.00 | 0.00 | 0.00 | 50 | 1009.4 |
| 20260506031459 | 64 | 255 | 2.0 | 5.0 | 0.00 | 0.00 | 0.00 | 50 | 1009.4 |
| 20260506030000 | 65 | 156 | 3.0 | 8.0 | 0.00 | 0.00 | 0.00 | 49 | 1009.4 |
| 20260506024500 | 65 | 221 | 2.0 | 9.0 | 0.00 | 0.00 | 0.00 | 49 | 1009.4 |
| 20260506022959 | 65 | 174 | 2.0 | 8.0 | 0.00 | 0.00 | 0.00 | 49 | 1009.5 |
| 20260506021500 | 65 | 155 | 2.0 | 6.0 | 0.00 | 0.00 | 0.00 | 48 | 1009.6 |
| 20260506020000 | 66 | 139 | 2.0 | 7.0 | 0.00 | 0.00 | 0.00 | 47 | 1009.6 |
| 20260506014459 | 67 | 218 | 2.0 | 7.0 | 0.00 | 0.00 | 0.00 | 46 | 1009.6 |
| 20260506011459 | 68 | 143 | 3.0 | 8.0 | 0.00 | 0.00 | 0.00 | 44 | 1009.2 |
| 20260506010000 | 68 | 156 | 3.0 | 7.0 | 0.00 | 0.00 | 0.00 | 44 | 1009.0 |
| 20260506004458 | 69 | 186 | 2.0 | 6.0 | 0.00 | 0.00 | 0.00 | 43 | 1008.8 |
| 20260506002959 | 70 | 257 | 3.0 | 6.0 | 0.00 | 0.00 | 0.00 | 42 | 1008.8 |
| 20260506001459 | 70 | 165 | 4.0 | 12.0 | 0.00 | 0.00 | 0.00 | 42 | 1008.5 |
| 20260506000000 | 70 | 191 | 4.0 | 11.0 | 0.00 | 0.00 | 0.00 | 42 | 1008.4 |
| 20260505234459 | 70 | 150 | 4.0 | 12.0 | 0.00 | 0.00 | 0.00 | 42 | 1008.2 |
| 20260505232959 | 70 | 215 | 3.0 | 14.0 | 0.00 | 0.00 | 0.00 | 42 | 1008.2 |
| 20260505231500 | 70 | 252 | 4.0 | 12.0 | 0.00 | 0.00 | 0.00 | 42 | 1008.0 |
| 20260505224458 | 71 | 162 | 6.0 | 14.0 | 0.00 | 0.00 | 0.00 | 42 | 1008.1 |
| 20260505222959 | 71 | 179 | 3.0 | 12.0 | 0.00 | 0.00 | 0.00 | 43 | 1008.0 |
| 20260505221500 | 71 | 225 | 3.0 | 14.0 | 0.00 | 0.00 | 0.00 | 43 | 1007.9 |
| 20260505220002 | 71 | 200 | 3.0 | 9.0 | 0.00 | 0.00 | 0.00 | 43 | 1007.8 |
| 20260505214458 | 70 | 198 | 4.0 | 13.0 | 0.00 | 0.00 | 0.00 | 43 | 1007.8 |
| 20260505212958 | 71 | 251 | 5.0 | 13.0 | 0.00 | 0.00 | 0.00 | 43 | 1007.9 |
| 20260505211458 | 72 | 167 | 5.0 | 12.0 | 0.00 | 0.00 | 0.00 | 41 | 1007.6 |
| 20260505210000 | 73 | 162 | 6.0 | 16.0 | 0.00 | 0.00 | 0.00 | 40 | 1007.5 |
| 20260505204458 | 74 | 264 | 6.0 | 17.0 | 0.00 | 0.00 | 0.00 | 39 | 1007.5 |
| 20260505200002 | 75 | 79 | 9.0 | 21.0 | 0.00 | 0.00 | 0.00 | 37 | 1007.2 |
| 20260505194459 | 78 | 156 | 7.0 | 21.0 | 0.00 | 0.00 | 0.00 | 36 | 1007.4 |
| 20260505192958 | 77 | 232 | 7.0 | 21.0 | 0.00 | 0.00 | 0.00 | 36 | 1007.4 |
| 20260505191458 | 76 | 238 | 8.0 | 20.0 | 0.00 | 0.00 | 0.00 | 35 | 1007.6 |
| 20260505190003 | 77 | 226 | 8.0 | 17.0 | 0.00 | 0.00 | 0.00 | 33 | 1008.0 |
| 20260505184459 | 77 | 338 | 6.0 | 17.0 | 0.00 | 0.00 | 0.00 | 35 | 1008.2 |
| 20260505182959 | 75 | 193 | 5.0 | 15.0 | 0.00 | 0.00 | 0.00 | 40 | 1008.3 |
| 20260505181459 | 76 | 194 | 6.0 | 16.0 | 0.00 | 0.00 | 0.00 | 39 | 1008.4 |
| 20260505174501 | 77 | 235 | 7.0 | 21.0 | 0.00 | 0.00 | 0.00 | 39 | 1008.8 |
| 20260505172958 | 76 | 238 | 6.0 | 19.0 | 0.00 | 0.00 | 0.00 | 40 | 1008.5 |
| 20260505171459 | 74 | 208 | 6.0 | 18.0 | 0.00 | 0.00 | 0.00 | 41 | 1008.7 |
| 20260505162959 | 73 | 278 | 5.0 | 10.0 | 0.00 | 0.00 | 0.00 | 45 | 1009.2 |
| 20260505161459 | 73 | 252 | 6.0 | 17.0 | 0.00 | 0.00 | 0.00 | 45 | 1009.3 |
| 20260505152957 | 72 | 266 | 4.0 | 15.0 | 0.00 | 0.00 | 0.00 | 47 | 1009.8 |
| 20260505151459 | 71 | 215 | 6.0 | 15.0 | 0.00 | 0.00 | 0.00 | 47 | 1009.9 |
| 20260505124458 | 66 | 155 | 3.0 | 8.0 | 0.00 | 0.00 | 0.00 | 57 | 1010.3 |
| 20260505122958 | 64 | 162 | 4.0 | 10.0 | 0.00 | 0.00 | 0.00 | 61 | 1010.4 |
| 20260505121457 | 61 | 126 | 3.0 | 8.0 | 0.00 | 0.00 | 0.00 | 62 | 1010.5 |
| 20260505120001 | 62 | 183 | 3.0 | 7.0 | 0.00 | 0.00 | 0.00 | 62 | 1010.2 |
| 20260505112959 | 59 | 135 | 3.0 | 6.0 | 0.00 | 0.00 | 0.00 | 68 | 1010.2 |
| 20260505111500 | 57 | 232 | 3.0 | 8.0 | 0.00 | 0.00 | 0.00 | 70 | 1010.2 |
| 20260505095959 | 51 | 166 | 1.0 | 4.0 | 0.00 | 0.00 | 0.00 | 73 | 1009.6 |
| 20260505092958 | 52 | 217 | 2.0 | 4.0 | 0.00 | 0.00 | 0.00 | 70 | 1009.4 |
| 20260505091458 | 52 | 208 | 2.0 | 6.0 | 0.00 | 0.00 | 0.00 | 69 | 1009.4 |
| 20260505085958 | 52 | 177 | 2.0 | 5.0 | 0.00 | 0.00 | 0.00 | 68 | 1009.4 |
| 20260505084457 | 52 | 146 | 2.0 | 6.0 | 0.00 | 0.00 | 0.00 | 68 | 1009.4 |
| 20260505081458 | 52 | 148 | 1.0 | 4.0 | 0.00 | 0.00 | 0.00 | 67 | 1009.4 |
| 20260505074458 | 53 | 145 | 2.0 | 4.0 | 0.00 | 0.00 | 0.00 | 66 | 1009.2 |
| 20260505072958 | 53 | 233 | 1.0 | 5.0 | 0.00 | 0.00 | 0.00 | 64 | 1009.2 |
| 20260505071457 | 54 | 147 | 1.0 | 4.0 | 0.00 | 0.00 | 0.00 | 64 | 1009.2 |
| 20260505070000 | 55 | 145 | 1.0 | 6.0 | 0.00 | 0.00 | 0.00 | 62 | 1009.3 |
| 20260505063000 | 56 | 207 | 2.0 | 7.0 | 0.00 | 0.00 | 0.00 | 61 | 1009.4 |
| 20260505060000 | 56 | 138 | 2.0 | 5.0 | 0.00 | 0.00 | 0.00 | 61 | 1009.5 |
| 20260505054459 | 55 | 182 | 3.0 | 8.0 | 0.00 | 0.00 | 0.00 | 61 | 1009.5 |
| 20260505052959 | 55 | 176 | 2.0 | 7.0 | 0.00 | 0.00 | 0.00 | 60 | 1009.5 |
| 20260505051459 | 56 | 145 | 3.0 | 9.0 | 0.00 | 0.00 | 0.00 | 59 | 1009.4 |